STARLINK-30103 (56290 NORAD) Tracking and Keplerian Element Data

This shows tracking and keplerian element data for the satellite.

Feedback or suggestion? Click here.




ElementValue
Catalog56290
NameSTARLINK-30103
Epoch Orbit324
Epoch Day127.25001157
Epoch Year2023
RAAN97.769
Inclination43.0027
Eccentricity0.0001402
Argument of Perigee264.5306
Mean Anonmoly121.1028
Mean Motion15.39911361
Decay Rate-0.01354064
L11 56290U 23056E 23127.25001157 -.01354064 00000+0 -36469-1 0 9997
L22 56290 43.0027 97.7690 0001402 264.5306 121.1028 15.39911361 3244



Live tracking and technical data element details for STARLINK-30103 (NORAD 56290). STARLINK-30103 can be tracked NOW for your location showing map with azimuth and elevation plus other details from your city location.







IsCatalogInMostPopularTable: catalog: 56290, numindb: 2
Update: records affected: 1



GetName: 56290 STARLINK-30103

Hit Count: updated at: Sat, 03 Jun 2023 18:29:46 GMT